Flag for Norway Weather past 2 weeks in Ørsta, Norway

Now
48 °F

Passing clouds.


Feels Like: 46 °F
Forecast: 45 / 55 °F
Wind: 5 mph from Southwest

Location: Orsta-Volda / Hovden

Current Time: May 30, 2015 at 9:30:19 AM

Latest Report: May 30, 2015 at 8:50 AM


Visibility: N/A

Pressure: 29.56 "Hg

Humidity: 62%

Dew point: 36 °F

Location of ØrstaLocation

Historic Weather in Ørsta — Graph

°F

Ørsta temperature yesterday

Maximum temperature yesterday: 54 °F (at 2:50 PM)
Minimum temperature yesterday: 45 °F (at 5:50 AM)
Average temperature yesterday: 50 °F

Past Weeks' High & Low Weather Summary

 TemperatureHumidityPressure
High59 °F (May 28, 2:50 PM)100% (May 20, 10:50 PM)30.07 "Hg (May 20, 10:50 PM)
Low37 °F (May 18, 5:50 AM)26% (May 18, 7:50 PM)29.36 "Hg (May 19, 1:20 PM)
Average48 °F67%29.72 "Hg
* Reported May 15 7:50 AM — May 30 7:50 AM, Ørsta, Weather by CustomWeather, © 2015

Note: Actual official high and low records may vary slightly from our data, if they occured in-between our weather recording intervals... More about our weather records

Advertising

Ørsta weather history for previous 24 hours

 ConditionsComfort  
Time TempWeatherWind HumidityBarometerVisibility
7:50 AM
Sat, May 30
46 °FSunny.3 mph66%29.56 "Hg10 mi
10:50 PM
Fri, May 29
46 °FPassing clouds.2 mph66%29.53 "HgN/A
9:50 PM48 °FPassing clouds.7 mph58%29.53 "HgN/A
8:50 PM50 °FScattered clouds.9 mph58%29.53 "HgN/A
7:50 PM52 °FScattered clouds.9 mph50%29.50 "HgN/A
6:50 PM50 °FPartly sunny.7 mph54%29.50 "HgN/A
5:50 PM52 °FScattered clouds.7 mph54%29.50 "HgN/A
4:50 PM54 °FScattered clouds.9 mph51%29.50 "HgN/A
3:50 PM54 °FPartly sunny.6 mph47%29.47 "HgN/A
2:50 PM54 °FScattered clouds.6 mph51%29.47 "HgN/A
1:50 PM52 °FScattered clouds.12 mph50%29.47 "HgN/A
12:50 PM52 °FScattered clouds.9 mph50%29.47 "HgN/A
11:50 AM50 °FScattered clouds.10 mph58%29.47 "HgN/A
10:50 AM50 °FScattered clouds.9 mph58%29.47 "HgN/A
10:20 AM50 °FPartly sunny.7 mph62%29.47 "HgN/A
9:50 AM50 °FScattered clouds.8 mph62%29.45 "HgN/A
Weather by CustomWeather, © 2015

See weather overviewHow to use our weather pages